Location: Newark
(34.5992°S, 58.3747°W)
Time: 14:46:51
(UTC+00:00)

STARLINK 1055 - Pass Details

Date: 09 December 2019
Orbit: 549 x 551 km, 53.0° (Epoch: 22 January)

Event Time Altitude Azimuth Distance (km) Brightness Sun altitude
Rises 23:37:27 0° 243° (WSW) 2,739 9.5 -7.7°
Reaches altitude 10° 23:40:17 10° 263° (W) 1,837 7.4 -8.2°
Maximum altitude 23:43:04 17° 305° (NW) 1,418 6.0 -8.6°
Drops below altitude 10° 23:45:50 10° 347° (NNW) 1,824 6.1 -9.1°
Enters shadow 23:48:12 - 4° (N) 2,557 6.6 -9.5°
